Hourly Data Report for September 07, 2017

All times are specified in Local Standard Time (LST). Add 1 hour to adjust for Daylight Saving Time where and when it is observed.

BAKER LAKE A
NUNAVUT

64°17'56.000" N
96°04'40.000" W
18.60 m
2300503
71926
YBK

Download Data

Hourly Data (September 2017)
Hourly Data Report for September 7, 2017
Temp Definition
°C
Dew Point Temp Definition
°C
Rel Hum Definition
%
Wind Dir Definition
10's deg

Wind Spd Definition
km/h
Visibility Definition
km
Stn Press Definition
kPa
Hmdx Definition


Wind Chill Definition


Weather Definition


TIME
00:00 Legend Double Dagger 4.0 1.8 85 20 14 24.1 101.36     Mostly Cloudy
01:00 Legend Double Dagger 4.5 2.1 84 22 14 24.1 101.32     LegendNANA
02:00 Legend Double Dagger 5.8 3.2 83 22 13 24.1 101.29     LegendNANA
03:00 Legend Double Dagger 4.9 3.1 88 21 14 24.1 101.24     Mostly Cloudy
04:00 Legend Double Dagger 4.0 2.8 92 21 8 24.1 101.22     LegendNANA
05:00 Legend Double Dagger 4.7 3.8 94 21 17 40.2 101.17     LegendNANA
06:00 Legend Double Dagger 6.1 5.0 93 21 16 40.2 101.12     Mostly Cloudy
07:00 Legend Double Dagger 7.1 5.8 91 21 18 40.2 101.08     LegendNANA
08:00 Legend Double Dagger 9.3 6.1 80 21 26 32.2 100.99     LegendNANA
09:00 Legend Double Dagger 9.9 6.3 78 20 25 32.2 100.93     Mostly Cloudy
10:00 Legend Double Dagger 10.9 6.8 76 20 25 32.2 100.90     LegendNANA
11:00 Legend Double Dagger 11.4 7.0 74 20 25 32.2 100.86     LegendNANA
12:00 Legend Double Dagger 11.2 7.1 76 21 26 32.2 100.80     Rain
13:00 Legend Double Dagger 10.5 8.5 87 21 21 32.2 100.75     Rain
14:00 Legend Double Dagger 11.1 8.2 83 21 17 32.2 100.66     Rain
15:00 Legend Double Dagger 10.8 8.1 83 20 14 32.2 100.58     Rain
16:00 Legend Double Dagger 11.1 8.1 82 17 14 32.2 100.48     LegendNANA
17:00 Legend Double Dagger 10.7 8.4 86 14 12 32.2 100.38     LegendNANA
18:00 Legend Double Dagger 10.7 8.2 85 14 17 32.2 100.30     Cloudy
19:00 Legend Double Dagger 10.3 8.3 87 13 16 32.2 100.17     LegendNANA
20:00 Legend Double Dagger 10.5 8.3 86 12 17 24.1 100.05     LegendNANA
21:00 Legend Double Dagger 11.0 8.6 86 14 17 24.1 99.92     Cloudy
22:00 Legend Double Dagger 10.8 8.9 88 11 17 24.1 99.82     LegendNANA
23:00 Legend Double Dagger 10.6 9.0 90 11 18 24.1 99.68     LegendNANA

Notes on Data Quality.

Legend

  • E = Estimated
  • M = Missing
  • NA = Not Available
  • ‡ = Partner data that is not subject to review by the National Climate Archives
Date modified: